LIC0209 GCLA-LEBA

Flight info

Callsign LIC0209
Flight time 2h 12m
Altitude 36000
Route KORAL UG5 SONSO DCT ADUBI N871 VJF N10 SVL N747 AMOTA
Aircraft A320/M-SDE3FGHIRWY/LB1

Departure

Time 2026-05-06 18:10
Airport La Palma Airport (GCLA)

Arrival

Time 2026-05-06 20:23
Airport Córdoba Airport (LEBA)
Time Latitude Longitude Altitude Speed Heading
2026-05-06 17:57 28.62047 -17.75353 114 ft 0 kts 89°
2026-05-06 18:03 28.62047 -17.75369 110 ft 4 kts 86°
2026-05-06 18:04 28.62044 -17.75400 111 ft 4 kts 76°
2026-05-06 18:04 28.62034 -17.75427 111 ft 4 kts 47°
2026-05-06 18:04 28.62019 -17.75438 110 ft 1 kts 359°
2026-05-06 18:04 28.62015 -17.75438 111 ft 0 kts 359°
2026-05-06 18:06 28.62016 -17.75438 111 ft 2 kts 358°
2026-05-06 18:07 28.62060 -17.75450 112 ft 7 kts 329°
2026-05-06 18:07 28.62080 -17.75495 116 ft 4 kts 271°
2026-05-06 18:07 28.62079 -17.75502 116 ft 1 kts 261°
2026-05-06 18:07 28.62046 -17.75536 116 ft 9 kts 200°
2026-05-06 18:08 28.61981 -17.75543 117 ft 11 kts 181°
2026-05-06 18:08 28.61902 -17.75543 116 ft 12 kts 181°
2026-05-06 18:08 28.61819 -17.75546 115 ft 12 kts 181°
2026-05-06 18:08 28.61731 -17.75559 112 ft 13 kts 195°
2026-05-06 18:09 28.61641 -17.75561 111 ft 12 kts 139°
2026-05-06 18:09 28.61685 -17.75539 112 ft 9 kts 348°
2026-05-06 18:09 28.61738 -17.75542 114 ft 0 kts 359°
2026-05-06 18:09 28.61767 -17.75543 111 ft 31 kts 357°
2026-05-06 18:10 28.62063 -17.75548 117 ft 95 kts 359°
2026-05-06 18:10 28.63348 -17.75596 479 ft 158 kts 356°
2026-05-06 18:10 28.64088 -17.75672 1005 ft 164 kts 355°
2026-05-06 18:10 28.65188 -17.75492 1933 ft 164 kts 33°
2026-05-06 18:11 28.65895 -17.74430 2538 ft 181 kts 70°
2026-05-06 18:11 28.66037 -17.72919 3020 ft 205 kts 91°
2026-05-06 18:11 28.66006 -17.71245 3903 ft 214 kts 89°
2026-05-06 18:11 28.66006 -17.69534 4950 ft 219 kts 88°
2026-05-06 18:12 28.66143 -17.67793 5929 ft 224 kts 71°
2026-05-06 18:12 28.66917 -17.66254 6904 ft 227 kts 48°
2026-05-06 18:12 28.67963 -17.64843 7684 ft 244 kts 47°
2026-05-06 18:12 28.69116 -17.63298 8306 ft 269 kts 47°
2026-05-06 18:13 28.70127 -17.61421 9105 ft 288 kts 66°
2026-05-06 18:13 28.70518 -17.59145 10086 ft 301 kts 88°
2026-05-06 18:13 28.70317 -17.56682 10681 ft 325 kts 96°
2026-05-06 18:13 28.69998 -17.54040 11260 ft 345 kts 97°
2026-05-06 18:14 28.69644 -17.51298 12149 ft 353 kts 97°
2026-05-06 18:14 28.69280 -17.48508 13085 ft 360 kts 97°
2026-05-06 18:14 28.68913 -17.45664 13992 ft 366 kts 96°
2026-05-06 18:14 28.68547 -17.42775 14808 ft 371 kts 96°
2026-05-06 18:15 28.68181 -17.39848 15633 ft 376 kts 96°
2026-05-06 18:15 28.67811 -17.36879 16464 ft 381 kts 96°
2026-05-06 18:15 28.67437 -17.33872 17288 ft 386 kts 96°
2026-05-06 18:15 28.67059 -17.30825 18110 ft 391 kts 96°
2026-05-06 18:16 28.66677 -17.27743 18844 ft 396 kts 96°
2026-05-06 18:16 28.66290 -17.24626 19570 ft 399 kts 95°
2026-05-06 18:16 28.65897 -17.21482 20305 ft 403 kts 95°
2026-05-06 18:16 28.65499 -17.18314 21022 ft 406 kts 95°
2026-05-06 18:17 28.65096 -17.15115 21728 ft 410 kts 94°
2026-05-06 18:17 28.64692 -17.11892 22424 ft 413 kts 94°
2026-05-06 18:17 28.64285 -17.08647 23111 ft 416 kts 94°
2026-05-06 18:17 28.63879 -17.05415 23742 ft 420 kts 93°
2026-05-06 18:18 28.63460 -17.02116 24286 ft 424 kts 94°
2026-05-06 18:18 28.63035 -16.98773 24813 ft 428 kts 94°
2026-05-06 18:18 28.62604 -16.95409 25337 ft 431 kts 94°
2026-05-06 18:18 28.62163 -16.91971 25869 ft 435 kts 94°
2026-05-06 18:19 28.61731 -16.88603 26392 ft 438 kts 94°
2026-05-06 18:19 28.61289 -16.85158 26911 ft 441 kts 94°
2026-05-06 18:19 28.60844 -16.81693 27427 ft 444 kts 94°
2026-05-06 18:19 28.60396 -16.78206 27936 ft 448 kts 94°
2026-05-06 18:20 28.59941 -16.74687 28440 ft 451 kts 94°
2026-05-06 18:20 28.59483 -16.71148 28932 ft 454 kts 94°
2026-05-06 18:20 28.59023 -16.67577 29432 ft 458 kts 94°
2026-05-06 18:20 28.58559 -16.63979 29889 ft 462 kts 94°
2026-05-06 18:21 28.58089 -16.60353 30318 ft 465 kts 94°
2026-05-06 18:21 28.57614 -16.56704 30703 ft 468 kts 94°
2026-05-06 18:21 28.57134 -16.53033 31082 ft 470 kts 94°
2026-05-06 18:21 28.56650 -16.49345 31454 ft 473 kts 94°
2026-05-06 18:22 28.56162 -16.45626 31833 ft 476 kts 94°
2026-05-06 18:22 28.55673 -16.41899 32234 ft 477 kts 94°
2026-05-06 18:22 28.55180 -16.38174 32758 ft 476 kts 94°
2026-05-06 18:22 28.54686 -16.34456 33305 ft 475 kts 94°
2026-05-06 18:23 28.54228 -16.30796 33830 ft 472 kts 91°
2026-05-06 18:23 28.54147 -16.27097 34308 ft 465 kts 82°
2026-05-06 18:23 28.54545 -16.23474 34772 ft 458 kts 73°
2026-05-06 18:23 28.55334 -16.19982 35193 ft 456 kts 70°
2026-05-06 18:24 28.56176 -16.16508 35609 ft 456 kts 70°
2026-05-06 18:24 28.57013 -16.13029 35935 ft 457 kts 70°
2026-05-06 18:24 28.58662 -16.06083 36036 ft 452 kts 70°
2026-05-06 18:25 28.60283 -15.99199 36044 ft 450 kts 70°
2026-05-06 18:25 28.61912 -15.92318 36024 ft 451 kts 70°
2026-05-06 18:26 28.63541 -15.85420 36024 ft 451 kts 70°
2026-05-06 18:26 28.65169 -15.78525 36023 ft 451 kts 70°
2026-05-06 18:27 28.66800 -15.71628 36021 ft 451 kts 70°
2026-05-06 18:27 28.68420 -15.64723 36020 ft 451 kts 70°
2026-05-06 18:28 28.70032 -15.57813 36026 ft 452 kts 71°
2026-05-06 18:28 28.71643 -15.50895 36016 ft 452 kts 71°
2026-05-06 18:29 28.73256 -15.43969 36010 ft 452 kts 71°
2026-05-06 18:29 28.74872 -15.37040 36013 ft 453 kts 71°
2026-05-06 18:30 28.76483 -15.30104 36012 ft 453 kts 71°
2026-05-06 18:30 28.78088 -15.23159 36014 ft 453 kts 71°
2026-05-06 18:31 28.79686 -15.16216 36013 ft 453 kts 71°
2026-05-06 18:31 28.81272 -15.09315 36017 ft 453 kts 71°
2026-05-06 18:32 28.82869 -15.02368 36016 ft 453 kts 71°
2026-05-06 18:32 28.84455 -14.95412 36018 ft 453 kts 71°
2026-05-06 18:33 28.86032 -14.88455 36024 ft 453 kts 71°
2026-05-06 18:33 28.87618 -14.81490 36018 ft 454 kts 71°
2026-05-06 18:34 28.89221 -14.74470 36014 ft 454 kts 71°
2026-05-06 18:34 28.90800 -14.67539 36013 ft 454 kts 71°
2026-05-06 18:35 28.92388 -14.60510 36014 ft 455 kts 71°
2026-05-06 18:35 28.93960 -14.53516 36024 ft 455 kts 72°
2026-05-06 18:36 28.95539 -14.46509 36006 ft 456 kts 72°
2026-05-06 18:36 28.97105 -14.39543 36007 ft 457 kts 72°
2026-05-06 18:37 28.98677 -14.32509 36004 ft 457 kts 72°
2026-05-06 18:37 29.00243 -14.25475 36009 ft 457 kts 72°
2026-05-06 18:38 29.01814 -14.18431 36016 ft 458 kts 72°
2026-05-06 18:38 29.03376 -14.11379 36000 ft 458 kts 72°
2026-05-06 18:39 29.04941 -14.04317 36005 ft 459 kts 72°
2026-05-06 18:40 29.07285 -13.93711 36002 ft 459 kts 72°
2026-05-06 18:40 29.08843 -13.86631 36002 ft 459 kts 72°
2026-05-06 18:41 29.10399 -13.79546 36003 ft 460 kts 73°
2026-05-06 18:41 29.11950 -13.72444 36009 ft 461 kts 73°
2026-05-06 18:42 29.13502 -13.65334 35998 ft 461 kts 73°
2026-05-06 18:42 29.15048 -13.58211 36000 ft 461 kts 73°
2026-05-06 18:43 29.16923 -13.51236 36000 ft 456 kts 61°
2026-05-06 18:43 29.20249 -13.45129 35997 ft 452 kts 51°
2026-05-06 18:44 29.23866 -13.39234 35992 ft 453 kts 51°
2026-05-06 18:44 29.27477 -13.33309 35992 ft 454 kts 52°
2026-05-06 18:45 29.31099 -13.27368 35994 ft 455 kts 51°
2026-05-06 18:45 29.34729 -13.21418 35997 ft 455 kts 52°
2026-05-06 18:46 29.38351 -13.15464 35996 ft 456 kts 52°
2026-05-06 18:46 29.41978 -13.09490 35992 ft 457 kts 52°
2026-05-06 18:47 29.45622 -13.03491 35977 ft 459 kts 52°
2026-05-06 18:47 29.49277 -12.97461 36003 ft 461 kts 52°
2026-05-06 18:48 29.52926 -12.91418 36007 ft 460 kts 52°
2026-05-06 18:48 29.56577 -12.85373 36010 ft 460 kts 52°
2026-05-06 18:49 29.60220 -12.79335 36013 ft 460 kts 52°
2026-05-06 18:49 29.63866 -12.73284 35995 ft 461 kts 53°
2026-05-06 18:50 29.67524 -12.67200 35988 ft 463 kts 53°
2026-05-06 18:50 29.71186 -12.61093 35987 ft 465 kts 53°
2026-05-06 18:51 29.74858 -12.54964 35989 ft 465 kts 53°
2026-05-06 18:51 29.78508 -12.48807 35992 ft 466 kts 53°
2026-05-06 18:52 29.82119 -12.42679 36016 ft 466 kts 53°
2026-05-06 18:52 29.85757 -12.36501 35998 ft 466 kts 53°
2026-05-06 18:53 29.89406 -12.30310 35974 ft 468 kts 53°
2026-05-06 18:53 29.93065 -12.24097 35976 ft 469 kts 54°
2026-05-06 18:54 29.96725 -12.17874 35975 ft 469 kts 54°
2026-05-06 18:54 30.00443 -12.11695 35985 ft 468 kts 48°
2026-05-06 18:55 30.05150 -12.06606 35985 ft 463 kts 35°
2026-05-06 18:55 30.10219 -12.02013 35968 ft 464 kts 35°
2026-05-06 18:56 30.15307 -11.97373 35963 ft 467 kts 36°
2026-05-06 18:56 30.20405 -11.92691 35968 ft 469 kts 36°
2026-05-06 18:57 30.24660 -11.88784 35973 ft 470 kts 36°
2026-05-06 18:57 30.29794 -11.84083 35976 ft 471 kts 36°
2026-05-06 18:58 30.34931 -11.79373 35982 ft 471 kts 36°
2026-05-06 18:58 30.40062 -11.74653 35980 ft 471 kts 36°
2026-05-06 18:59 30.45188 -11.69918 36005 ft 471 kts 36°
2026-05-06 18:59 30.50310 -11.65189 36011 ft 470 kts 36°
2026-05-06 19:00 30.55418 -11.60469 36009 ft 469 kts 36°
2026-05-06 19:00 30.60523 -11.55755 36001 ft 468 kts 36°
2026-05-06 19:01 30.65620 -11.51045 36004 ft 468 kts 36°
2026-05-06 19:01 30.70705 -11.46326 36000 ft 468 kts 36°
2026-05-06 19:02 30.75787 -11.41603 36016 ft 468 kts 35°
2026-05-06 19:02 30.80865 -11.36883 36002 ft 467 kts 35°
2026-05-06 19:03 30.85902 -11.32195 36001 ft 467 kts 35°
2026-05-06 19:03 30.90975 -11.27465 35978 ft 468 kts 36°
2026-05-06 19:04 30.96059 -11.22711 35967 ft 469 kts 36°
2026-05-06 19:04 31.01155 -11.17947 35965 ft 470 kts 36°
2026-05-06 19:05 31.06258 -11.13166 35986 ft 471 kts 36°
2026-05-06 19:05 31.11365 -11.08381 35989 ft 471 kts 36°
2026-05-06 19:06 31.16464 -11.03588 35989 ft 471 kts 36°
2026-05-06 19:06 31.21558 -10.98790 35981 ft 470 kts 36°
2026-05-06 19:07 31.26653 -10.93992 35991 ft 470 kts 36°
2026-05-06 19:07 31.31759 -10.89186 35965 ft 472 kts 36°
2026-05-06 19:08 31.36878 -10.84359 35978 ft 473 kts 36°
2026-05-06 19:08 31.41998 -10.79518 35980 ft 473 kts 36°
2026-05-06 19:09 31.47112 -10.74663 35980 ft 473 kts 36°
2026-05-06 19:09 31.52230 -10.69806 35978 ft 473 kts 36°
2026-05-06 19:10 31.57352 -10.64946 35979 ft 474 kts 36°
2026-05-06 19:10 31.62463 -10.60075 35980 ft 474 kts 36°
2026-05-06 19:11 31.67576 -10.55201 35993 ft 474 kts 36°
2026-05-06 19:11 31.72697 -10.50315 35971 ft 475 kts 36°
2026-05-06 19:12 31.77820 -10.45413 35963 ft 476 kts 36°
2026-05-06 19:12 31.82953 -10.40501 35963 ft 476 kts 36°
2026-05-06 19:13 31.88094 -10.35581 35966 ft 476 kts 36°
2026-05-06 19:13 31.93232 -10.30651 35996 ft 477 kts 36°
2026-05-06 19:14 31.98363 -10.25714 35990 ft 476 kts 36°
2026-05-06 19:14 32.03494 -10.20774 35986 ft 476 kts 36°
2026-05-06 19:15 32.08627 -10.15826 35966 ft 477 kts 36°
2026-05-06 19:15 32.13734 -10.10898 35959 ft 478 kts 36°
2026-05-06 19:16 32.18886 -10.05915 35959 ft 479 kts 36°
2026-05-06 19:16 32.24038 -10.00915 35993 ft 479 kts 36°
2026-05-06 19:17 32.29191 -9.95917 35984 ft 479 kts 36°
2026-05-06 19:17 32.34344 -9.90918 35984 ft 479 kts 36°
2026-05-06 19:18 32.39496 -9.85916 35980 ft 479 kts 36°
2026-05-06 19:18 32.44634 -9.80907 35956 ft 479 kts 37°
2026-05-06 19:19 32.49780 -9.75875 35957 ft 481 kts 37°
2026-05-06 19:19 32.54948 -9.70831 35981 ft 482 kts 36°
2026-05-06 19:20 32.60112 -9.65772 35976 ft 482 kts 37°
2026-05-06 19:20 32.65271 -9.60703 35970 ft 481 kts 36°
2026-05-06 19:21 32.70396 -9.55673 35974 ft 481 kts 37°
2026-05-06 19:21 32.75548 -9.50602 35970 ft 481 kts 37°
2026-05-06 19:22 32.80705 -9.45537 35979 ft 481 kts 37°
2026-05-06 19:22 32.85868 -9.40464 35968 ft 482 kts 37°
2026-05-06 19:23 32.91036 -9.35354 35962 ft 483 kts 37°
2026-05-06 19:23 32.96194 -9.30240 35959 ft 483 kts 37°
2026-05-06 19:24 33.01360 -9.25110 35961 ft 483 kts 37°
2026-05-06 19:24 33.06527 -9.19985 35961 ft 484 kts 37°
2026-05-06 19:25 33.11698 -9.14852 35960 ft 484 kts 37°
2026-05-06 19:25 33.16867 -9.09707 35962 ft 484 kts 37°
2026-05-06 19:26 33.22034 -9.04548 35949 ft 485 kts 37°
2026-05-06 19:26 33.27208 -8.99362 35943 ft 486 kts 37°
2026-05-06 19:27 33.32400 -8.94173 35953 ft 487 kts 37°
2026-05-06 19:27 33.37562 -8.89007 35974 ft 487 kts 37°
2026-05-06 19:28 33.42750 -8.83786 35973 ft 487 kts 37°
2026-05-06 19:28 33.47943 -8.78566 35967 ft 487 kts 37°
2026-05-06 19:29 33.53131 -8.73351 35968 ft 487 kts 37°
2026-05-06 19:29 33.58325 -8.68118 35955 ft 488 kts 38°
2026-05-06 19:30 33.63524 -8.62865 35953 ft 489 kts 38°
2026-05-06 19:30 33.68725 -8.57594 35981 ft 490 kts 38°
2026-05-06 19:31 33.73935 -8.52311 35983 ft 490 kts 38°
2026-05-06 19:31 33.81739 -8.44378 35980 ft 490 kts 38°
2026-05-06 19:32 33.86940 -8.39086 35979 ft 490 kts 38°
2026-05-06 19:32 33.92134 -8.33788 35960 ft 489 kts 38°
2026-05-06 19:33 33.97329 -8.28478 35981 ft 490 kts 38°
2026-05-06 19:33 34.02488 -8.23205 35971 ft 489 kts 38°
2026-05-06 19:34 34.07678 -8.17895 35969 ft 489 kts 38°
2026-05-06 19:34 34.12860 -8.12567 35961 ft 490 kts 38°
2026-05-06 19:35 34.18046 -8.07230 35961 ft 490 kts 38°
2026-05-06 19:35 34.23235 -8.01885 35975 ft 490 kts 38°
2026-05-06 19:36 34.28420 -7.96535 35973 ft 490 kts 38°
2026-05-06 19:36 34.33599 -7.91180 35971 ft 490 kts 38°
2026-05-06 19:37 34.38775 -7.85829 35963 ft 489 kts 38°
2026-05-06 19:37 34.43068 -7.81378 35962 ft 489 kts 38°
2026-05-06 19:38 34.49107 -7.75115 35990 ft 489 kts 38°
2026-05-06 19:38 34.54261 -7.69750 35982 ft 488 kts 38°
2026-05-06 19:39 34.59411 -7.64375 35976 ft 488 kts 38°
2026-05-06 19:39 34.64523 -7.59032 35955 ft 488 kts 38°
2026-05-06 19:40 34.69675 -7.53651 35946 ft 489 kts 38°
2026-05-06 19:40 34.74832 -7.48256 35949 ft 489 kts 38°
2026-05-06 19:41 34.79991 -7.42840 35976 ft 490 kts 38°
2026-05-06 19:41 34.85143 -7.37425 35971 ft 490 kts 39°
2026-05-06 19:42 34.90294 -7.32000 35965 ft 490 kts 39°
2026-05-06 19:42 34.95444 -7.26563 35964 ft 490 kts 39°
2026-05-06 19:43 35.00589 -7.21126 35950 ft 490 kts 39°
2026-05-06 19:43 35.05734 -7.15687 35974 ft 490 kts 39°
2026-05-06 19:44 35.10875 -7.10242 35964 ft 489 kts 39°
2026-05-06 19:44 35.16015 -7.04790 35958 ft 489 kts 39°
2026-05-06 19:45 35.21148 -6.99325 35955 ft 489 kts 39°
2026-05-06 19:45 35.26267 -6.93858 35949 ft 489 kts 39°
2026-05-06 19:46 35.31387 -6.88382 35968 ft 488 kts 39°
2026-05-06 19:46 35.36506 -6.82916 35943 ft 488 kts 39°
2026-05-06 19:47 35.40753 -6.78373 35941 ft 487 kts 39°
2026-05-06 19:47 35.46714 -6.71981 35932 ft 487 kts 39°
2026-05-06 19:48 35.50942 -6.67430 35922 ft 486 kts 39°
2026-05-06 19:48 35.56855 -6.61060 35917 ft 486 kts 39°
2026-05-06 19:49 35.61112 -6.56477 35945 ft 486 kts 39°
2026-05-06 19:49 35.66190 -6.50987 35931 ft 486 kts 39°
2026-05-06 19:50 35.71262 -6.45494 35904 ft 486 kts 39°
2026-05-06 19:50 35.76333 -6.40005 35910 ft 485 kts 39°
2026-05-06 19:51 35.81395 -6.34505 35915 ft 485 kts 39°
2026-05-06 19:51 35.86731 -6.29478 35912 ft 482 kts 32°
2026-05-06 19:52 35.92253 -6.24780 35918 ft 482 kts 32°
2026-05-06 19:52 35.97768 -6.20063 35917 ft 482 kts 32°
2026-05-06 19:53 36.03275 -6.15328 35921 ft 482 kts 32°
2026-05-06 19:53 36.08790 -6.10594 35922 ft 483 kts 32°
2026-05-06 19:54 36.14296 -6.05863 35936 ft 482 kts 32°
2026-05-06 19:54 36.19794 -6.01128 35941 ft 480 kts 31°
2026-05-06 19:55 36.25735 -5.97577 35937 ft 470 kts 12°
2026-05-06 19:55 36.32086 -5.96113 35924 ft 463 kts
2026-05-06 19:56 36.38469 -5.94990 35936 ft 463 kts
2026-05-06 19:56 36.44841 -5.93851 35928 ft 463 kts
2026-05-06 19:57 36.51211 -5.92717 35925 ft 462 kts
2026-05-06 19:57 36.57530 -5.91589 35910 ft 462 kts
2026-05-06 19:58 36.63887 -5.90454 35920 ft 461 kts
2026-05-06 19:58 36.70233 -5.89324 35917 ft 460 kts
2026-05-06 19:59 36.76575 -5.88185 35903 ft 460 kts
2026-05-06 19:59 36.82913 -5.87050 35895 ft 460 kts
2026-05-06 20:00 36.89246 -5.85914 35905 ft 459 kts
2026-05-06 20:00 36.95570 -5.84772 35897 ft 459 kts
2026-05-06 20:01 37.01888 -5.83631 35886 ft 459 kts
2026-05-06 20:01 37.08202 -5.82483 35878 ft 458 kts
2026-05-06 20:02 37.14511 -5.81340 35894 ft 458 kts
2026-05-06 20:02 37.17669 -5.80771 35707 ft 459 kts
2026-05-06 20:02 37.20826 -5.80203 35456 ft 458 kts
2026-05-06 20:03 37.23979 -5.79636 35213 ft 458 kts
2026-05-06 20:03 37.27141 -5.79068 34957 ft 458 kts
2026-05-06 20:03 37.30299 -5.78499 34614 ft 457 kts
2026-05-06 20:03 37.33441 -5.77922 33918 ft 457 kts
2026-05-06 20:04 37.36526 -5.76909 33137 ft 461 kts 17°
2026-05-06 20:04 37.39431 -5.75188 32422 ft 463 kts 28°
2026-05-06 20:04 37.42051 -5.72833 31705 ft 464 kts 39°
2026-05-06 20:04 37.44297 -5.69919 31007 ft 464 kts 50°
2026-05-06 20:05 37.46088 -5.66551 30308 ft 463 kts 61°
2026-05-06 20:05 37.47444 -5.62881 29558 ft 461 kts 66°
2026-05-06 20:05 37.48731 -5.59203 28867 ft 457 kts 66°
2026-05-06 20:05 37.50001 -5.55564 28197 ft 452 kts 66°
2026-05-06 20:06 37.51260 -5.51956 27527 ft 447 kts 66°
2026-05-06 20:06 37.52502 -5.48389 26882 ft 443 kts 67°
2026-05-06 20:06 37.53731 -5.44852 26244 ft 438 kts 67°
2026-05-06 20:06 37.54947 -5.41351 25633 ft 434 kts 67°
2026-05-06 20:07 37.56150 -5.37887 25037 ft 429 kts 67°
2026-05-06 20:07 37.57340 -5.34455 24458 ft 425 kts 68°
2026-05-06 20:07 37.58518 -5.31056 23878 ft 421 kts 67°
2026-05-06 20:07 37.59924 -5.27844 23286 ft 418 kts 56°
2026-05-06 20:08 37.61776 -5.25045 22663 ft 413 kts 44°
2026-05-06 20:08 37.63977 -5.22768 22119 ft 406 kts 32°
2026-05-06 20:08 37.66393 -5.20968 21556 ft 401 kts 28°
2026-05-06 20:08 37.68810 -5.19240 20999 ft 398 kts 28°
2026-05-06 20:09 37.71206 -5.17520 20423 ft 395 kts 28°
2026-05-06 20:09 37.73586 -5.15805 19852 ft 392 kts 28°
2026-05-06 20:09 37.75950 -5.14096 19279 ft 391 kts 29°
2026-05-06 20:09 37.78302 -5.12394 18701 ft 389 kts 29°
2026-05-06 20:10 37.80644 -5.10702 18117 ft 387 kts 29°
2026-05-06 20:10 37.82976 -5.09014 17501 ft 385 kts 29°
2026-05-06 20:10 37.85290 -5.07337 16948 ft 381 kts 29°
2026-05-06 20:10 37.87587 -5.05676 16387 ft 379 kts 29°
2026-05-06 20:11 37.89865 -5.04029 15833 ft 376 kts 30°
2026-05-06 20:11 37.92128 -5.02391 15286 ft 373 kts 30°
2026-05-06 20:11 37.94372 -5.00764 14733 ft 370 kts 30°
2026-05-06 20:11 37.96556 -4.99179 14200 ft 356 kts 30°
2026-05-06 20:12 37.98699 -4.97618 13660 ft 356 kts 30°
2026-05-06 20:12 38.00844 -4.96056 13078 ft 354 kts 30°
2026-05-06 20:12 38.02918 -4.94403 12528 ft 350 kts 38°
2026-05-06 20:12 38.04709 -4.92342 11968 ft 346 kts 45°
2026-05-06 20:13 38.06394 -4.90246 11401 ft 330 kts 45°
2026-05-06 20:13 38.07988 -4.88262 10867 ft 314 kts 45°
2026-05-06 20:13 38.09508 -4.86366 10358 ft 300 kts 45°
2026-05-06 20:13 38.10971 -4.84540 10084 ft 294 kts 45°
2026-05-06 20:14 38.12433 -4.82717 10005 ft 294 kts 45°
2026-05-06 20:14 38.13885 -4.80904 9878 ft 292 kts 45°
2026-05-06 20:14 38.15104 -4.78852 9473 ft 293 kts 65°
2026-05-06 20:14 38.15564 -4.76364 9016 ft 290 kts 89°
2026-05-06 20:15 38.15219 -4.73872 8556 ft 286 kts 112°
2026-05-06 20:15 38.14218 -4.71741 8106 ft 279 kts 126°
2026-05-06 20:15 38.13117 -4.69792 7674 ft 264 kts 126°
2026-05-06 20:15 38.12071 -4.67944 7270 ft 252 kts 127°
2026-05-06 20:16 38.11066 -4.66190 6881 ft 240 kts 130°
2026-05-06 20:16 38.09763 -4.64932 6506 ft 237 kts 160°
2026-05-06 20:16 38.08145 -4.64704 6124 ft 236 kts 191°
2026-05-06 20:16 38.06688 -4.65543 5861 ft 229 kts 217°
2026-05-06 20:17 38.05426 -4.66761 5539 ft 227 kts 218°
2026-05-06 20:17 38.04172 -4.67976 5203 ft 227 kts 218°
2026-05-06 20:17 38.02918 -4.69190 4859 ft 226 kts 218°
2026-05-06 20:17 38.01665 -4.70400 4507 ft 226 kts 218°
2026-05-06 20:18 38.00396 -4.71570 4178 ft 225 kts 215°
2026-05-06 20:18 37.99103 -4.72674 3858 ft 224 kts 214°
2026-05-06 20:18 37.97810 -4.73753 3538 ft 221 kts 213°
2026-05-06 20:18 37.96558 -4.74795 3418 ft 203 kts 214°
2026-05-06 20:19 37.95434 -4.75733 3025 ft 185 kts 214°
2026-05-06 20:19 37.94452 -4.76554 2761 ft 157 kts 214°
2026-05-06 20:19 37.93602 -4.77265 2520 ft 138 kts 214°
2026-05-06 20:19 37.92843 -4.77901 2327 ft 126 kts 214°
2026-05-06 20:20 37.92130 -4.78501 2138 ft 122 kts 215°
2026-05-06 20:20 37.91424 -4.79094 1974 ft 122 kts 214°
2026-05-06 20:20 37.90717 -4.79689 1799 ft 122 kts 214°
2026-05-06 20:20 37.90008 -4.80286 1623 ft 123 kts 214°
2026-05-06 20:21 37.89302 -4.80882 1447 ft 122 kts 214°
2026-05-06 20:21 37.88614 -4.81503 1271 ft 121 kts 221°
2026-05-06 20:21 37.88001 -4.82224 1097 ft 120 kts 219°
2026-05-06 20:21 37.87282 -4.82744 927 ft 120 kts 201°
2026-05-06 20:22 37.86537 -4.83212 750 ft 120 kts 212°
2026-05-06 20:22 37.85818 -4.83752 575 ft 120 kts 208°
2026-05-06 20:22 37.85084 -4.84255 331 ft 119 kts 210°
2026-05-06 20:22 37.84415 -4.84741 307 ft 98 kts 210°
2026-05-06 20:23 37.84084 -4.84976 301 ft 11 kts 208°
2026-05-06 20:23 37.84060 -4.85003 301 ft 12 kts 229°
2026-05-06 20:23 37.84035 -4.85002 303 ft 3 kts 64°
2026-05-06 20:23 37.84059 -4.84984 303 ft 5 kts 29°
2026-05-06 20:24 37.84102 -4.84953 303 ft 13 kts 30°
2026-05-06 20:24 37.84198 -4.84888 305 ft 16 kts 27°
2026-05-06 20:24 37.84289 -4.84824 306 ft 15 kts 29°
2026-05-06 20:24 37.84356 -4.84752 306 ft 11 kts 78°
2026-05-06 20:25 37.84335 -4.84676 308 ft 0 kts 117°
2026-05-06 20:26 37.84317 -4.84589 309 ft 15 kts 70°
2026-05-06 20:26 37.84339 -4.84549 309 ft 4 kts 56°
2026-05-06 20:26 37.84346 -4.84517 310 ft 4 kts 74°
2026-05-06 20:26 37.84355 -4.84475 310 ft 6 kts 80°
2026-05-06 20:27 37.84344 -4.84420 309 ft 8 kts 118°
2026-05-06 20:27 37.84343 -4.84417 309 ft 0 kts 118°